Home > Weather > Río Grande > Past weeks

Flag for Argentina Weather for the Past 2 Weeks in Río Grande, Tierra del Fuego, Argentina

Now
46 °F

Sunny.


Feels Like: 39 °F
Forecast: 36 / 46 °F
Wind: 21 mph from West

Location: Rio Grande B. A.

Current Time: May 1, 2016 at 2:52:10 PM

Latest Report: May 1, 2016 at 2:00 PM


Visibility: 10 mi

Pressure: 29.77 "Hg

Humidity: 53%

Dew Point: 30 °F

Location of Río GrandeLocation

Historic Weather in Río Grande — Graph

°F

Río Grande Temperature Yesterday

Maximum temperature yesterday: 50 °F (at 4:00 PM)
Minimum temperature yesterday: 30 °F (at 11:00 PM)
Average temperature yesterday: 41 °F

High & Low Weather Summary for the Past Weeks

 TemperatureHumidityPressure
High54 °F (Apr 27, 4:00 PM)100% (Apr 18, 6:00 PM)30.36 "Hg (Apr 18, 6:00 PM)
Low23 °F (Apr 18, 3:00 AM)42% (Apr 17, 2:00 PM)29.06 "Hg (Apr 16, 2:00 PM)
Average36 °F84%29.76 "Hg
* Reported Apr 16 1:00 PM — May 1 1:00 PM, Río Grande, Weather by CustomWeather, © 2016

Note: Actual official high and low records may vary slightly from our data, if they occured in-between our weather recording intervals... More about our weather records

Advertising

Río Grande Weather History for the Previous 24 Hours

Scroll right to see more
 ConditionsComfort  
Time TempWeatherWind HumidityBarometerVisibility
1:00 PM
Sun, May 1
45 °FSunny.22 mph61%29.77 "Hg10 mi
12:00 PM43 °FSunny.20 mph66%29.77 "Hg10 mi
11:00 AM39 °FSunny.16 mph70%29.77 "Hg10 mi
10:00 AM36 °FSunny.15 mph75%29.77 "Hg10 mi
9:00 AM30 °FSunny.9 mph80%29.77 "Hg10 mi
8:00 AM28 °FSunny.7 mph93%29.77 "Hg10 mi
7:00 AM28 °FClear.9 mph86%29.74 "Hg10 mi
6:00 AM30 °FClear.12 mph80%29.74 "Hg10 mi
5:00 AM28 °FClear.10 mph86%29.74 "Hg10 mi
4:00 AM28 °FClear.10 mph86%29.74 "Hg10 mi
3:00 AM30 °FClear.13 mph80%29.74 "Hg10 mi
2:00 AM28 °FClear.9 mph86%29.77 "Hg10 mi
12:00 AM28 °FClear.8 mph86%29.77 "Hg10 mi
11:00 PM
Sat, Apr 30
30 °FClear.9 mph86%29.77 "Hg10 mi
10:00 PM34 °FPassing clouds.6 mph93%29.74 "HgN/A
8:00 PM39 °FPassing clouds.6 mph87%29.71 "HgN/A
7:00 PM41 °FPassing clouds.13 mph76%29.68 "HgN/A
6:00 PM43 °FClear.13 mph76%29.68 "Hg10 mi
5:00 PM48 °FPassing clouds.2 mph66%29.65 "HgN/A
4:00 PM50 °FPassing clouds.7 mph58%29.65 "HgN/A
3:00 PM48 °FPassing clouds.6 mph58%29.68 "HgN/A
2:00 PM46 °FPassing clouds.5 mph62%29.71 "HgN/A
Weather by CustomWeather, © 2016

See weather overviewHow to use our weather pages